#timestamp,LO_Frequency,Hit,StdDev 
1630227615.5,286046998.6,N
1630227635.3,286047000.6,N
1630227655.1,286047002.8,N
1630227675.9,286047001.5,N
1630227695.7,286047001.3,N
1630227715.6,286047002.8,N
1630227735.4,286047001.5,N
1630227755.2,286047002.1,N
1630227775.1,286047004.3,N
1630227776.0,286047004.3,N
1630227795.8,286047000.3,N
1630227815.6,286046998.6,N
1630227835.5,286046998.4,N
1630227855.3,286046998.8,N
1630227875.2,286047000.1,N
1630227895.9,286046999.7,N
1630227915.7,286046999.7,N
1630227935.6,286047002.4,N
1630227955.4,286047002.8,N
1630227975.2,286047002.3,N
1630227995.1,286047001.3,N
1630227996.0,286047001.3,N
1630228015.8,286047004.0,N
1630228035.7,286047003.5,N
1630228055.5,286047003.5,N
1630228075.3,286047004.1,N
1630228095.2,286047003.8,N
1630228115.9,286047002.8,N
1630228135.7,286046999.3,N
1630228155.6,286046999.2,N
1630228175.4,286046997.6,N
1630228195.2,286046996.9,N
1630228215.1,286046998.8,N
1630228216.0,286046998.8,N
1630228235.8,286046998.8,N
1630228255.7,286046998.8,N
1630228275.5,286047001.2,N
1630228295.3,286047000.1,N
1630228315.2,286047001.6,N
1630228335.0,286047003.9,N
1630228335.9,286047003.9,N
1630228355.8,286047003.1,N
1630228375.6,286047004.1,N
1630228395.4,286047001.3,N
1630228415.3,286047001.3,N
1630228435.1,286047004.4,N
1630228436.0,286047004.4,N
1630228455.8,286047004.1,N
1630228475.7,286047003.7,N
1630228495.5,286047004.1,N
1630228515.4,286047003.3,N
1630228535.2,286047003.0,N
1630228555.0,286047003.4,N
1630228555.9,286047003.4,N
1630228575.8,286047001.3,N
1630228595.6,286047004.3,N
1630228615.4,286047001.3,N
1630228635.3,286047003.1,N
1630228655.1,286047002.9,N
1630228675.9,286047005.5,N
1630228695.7,286047005.9,N
1630228715.5,286047005.6,N
1630228735.4,286047004.5,N
1630228755.2,286047004.8,N
1630228775.0,286047003.6,N
1630228775.9,286047003.6,N
1630228795.8,286047006.0,Y
1630228815.6,286047002.4,P
1630228835.5,286046999.7,N
1630228855.3,286047002.7,N
1630228875.1,286047000.2,N
1630228895.9,286046998.4,N
1630228915.7,286047000.8,N
1630228935.5,286046998.6,N
1630228955.4,286047001.0,N
1630228975.2,286046998.5,N
1630228995.1,286047000.0,N
1630228996.0,286047000.0,N
1630229015.6,286046998.2,N
1630229035.4,286046998.6,N
1630229055.2,286046998.6,N
1630229075.1,286047001.1,N
1630229076.0,286047001.1,N
1630229095.8,286046998.6,N
1630229115.7,286046998.6,N
1630229135.5,286046998.3,N
1630229155.3,286047000.5,N
1630229175.2,286046998.2,N
1630229195.0,286046999.2,N
1630229195.9,286046999.2,N
1630229215.7,286046999.3,N
1630229235.6,286047000.6,N
1630229255.4,286047000.8,N
1630229275.3,286047000.1,N
1630229295.1,286047000.2,N
1630229296.0,286047000.2,N
1630229315.8,286047002.6,N
1630229335.7,286047000.1,N
1630229355.5,286047000.2,N
1630229375.3,286047002.4,N
1630229395.2,286047002.5,N
1630229415.0,286047002.5,N
1630229415.9,286047002.5,N
1630229435.8,286047001.2,N
1630229455.6,286046997.8,N
1630229475.4,286046995.1,Y
1630229495.3,286046995.5,P
1630229515.1,286046993.7,N
1630229535.9,286046995.9,N
1630229555.7,286046995.6,N
1630229575.5,286046996.0,N
1630229595.4,286046994.2,Y
1630229615.2,286046996.8,P
1630229635.0,286046997.4,P
1630229635.9,286046997.4,P
1630229655.8,286046999.5,N
1630229675.6,286046998.8,N
1630229695.5,286047001.0,N
1630229715.3,286047002.8,N
1630229735.1,286047000.9,N
1630229755.9,286046999.7,N
1630229775.7,286046998.1,N
1630229795.6,286047000.2,N
1630229815.4,286047002.2,N
1630229835.2,286047002.3,N
1630229855.1,286047000.3,N
1630229856.0,286047000.3,N
1630229875.8,286046998.8,N
1630229895.6,286046998.3,N
1630229915.5,286046999.5,N
1630229935.3,286047000.3,N
1630229955.2,286046998.6,N
1630229975.9,286047000.8,N
1630229995.7,286047002.1,N
1630230015.6,286047002.2,N
1630230035.4,286047001.4,N
1630230055.2,286047003.7,N
1630230075.1,286047005.3,N
1630230076.0,286047005.3,N
1630230095.8,286047004.5,N
1630230115.7,286047007.1,N
1630230135.5,286047007.2,N
1630230155.3,286047004.5,N
1630230175.2,286047004.8,N
1630230195.0,286047004.7,N
1630230195.9,286047004.7,N
1630230215.7,286047005.7,N
1630230235.6,286047003.6,N
1630230255.4,286047004.0,N
1630230275.3,286046999.7,N
1630230295.1,286047001.0,N
1630230296.0,286047001.0,N
1630230315.8,286047002.3,N
1630230335.7,286047001.9,N
1630230355.5,286047003.8,N
1630230375.3,286047001.6,N
1630230395.2,286046999.9,N
1630230415.0,286047002.2,N
1630230415.9,286047002.2,N
1630230435.8,286047001.7,N
1630230455.6,286047003.8,N
1630230475.4,286047003.8,N
1630230495.3,286047003.1,N
1630230515.1,286047004.7,N
1630230535.8,286047004.8,N
1630230555.7,286047005.7,Y
1630230575.5,286047002.5,P
1630230595.4,286047001.4,N
1630230615.2,286047001.8,N
1630230635.0,286047001.7,N
1630230635.9,286047001.7,N
1630230655.8,286047003.5,Y
1630230675.6,286047000.7,P
1630230695.5,286046999.2,N
1630230715.3,286046999.5,N
1630230735.1,286046999.5,N
1630230755.9,286047001.1,N
1630230775.7,286047000.7,N
1630230795.6,286046998.6,N
1630230815.4,286046999.1,N
1630230835.2,286046999.0,N
1630230855.1,286046998.2,N
1630230856.0,286046998.2,N
1630230875.8,286047000.4,N
1630230895.6,286047000.1,N
1630230915.5,286047002.8,N
1630230935.3,286047002.4,N
1630230955.2,286046999.7,N
1630230975.0,286047002.4,N
1630230975.9,286047002.4,N
1630230995.7,286047002.3,N
1630231015.6,286047001.5,N
1630231035.4,286047001.3,N
1630231055.3,286047003.9,N
1630231075.1,286047003.2,N
1630231076.0,286047003.2,N
1630231095.8,286047004.4,N
1630231115.7,286047004.0,N
1630231135.5,286047002.6,N
1630231155.3,286047002.6,N
1630231175.2,286047002.8,N
1630231195.0,286047002.7,N
1630231195.9,286047002.7,N
